Home   Weather   Larnaca   Past weeks
Flag for Cyprus

Past Weather in Larnaca, Cyprus — Yesterday and Last 2 Weeks

Now
61 °F

Passing clouds.


Feels Like: 61 °F
Forecast: 63 / 47 °F
Wind: 3 mph from Northwest

Location: Larnaca Airport

Current Time: Feb 20, 2019 at 9:34:21 am

Latest Report: Feb 20, 2019 at 9:00 am


Visibility: N/A

Pressure: 30.18 "Hg

Humidity: 88%

Dew Point: 57 °F

Location of LarnacaLocation

Past Weather in Larnaca — Graph

°F

Larnaca Temperature Yesterday

Maximum temperature yesterday: 68 °F (at 1:30 pm)
Minimum temperature yesterday: 45 °F (at 5:30 am)
Average temperature yesterday: 56 °F

High & Low Weather Summary for the Past Weeks

 TemperatureHumidityPressure
High68 °F (Feb 19, 1:30 pm)94% (Feb 6, 12:30 pm)30.18 "Hg (Feb 6, 12:30 pm)
Low43 °F (Feb 12, 5:00 am)40% (Feb 18, 1:00 pm)29.74 "Hg (Feb 15, 2:00 am)
Average56 °F80%30.00 "Hg
* Reported Feb 5 8:00 am — Feb 20 8:00 am, Larnaca. Weather by CustomWeather, © 2019

Note: Actual official high and low records may vary slightly from our data, if they occured in-between our weather recording intervals... More about our weather records

Advertising

Larnaca Weather History for the Previous 24 Hours

Scroll right to see more
 ConditionsComfort  
Time TempWeatherWind HumidityBarometerVisibility
8:00 am
Wed, Feb 20
54 °FPassing clouds.3 mph94%30.15 "HgN/A
7:30 am52 °FPassing clouds.6 mph88%30.15 "HgN/A
7:00 am46 °FPassing clouds.3 mph93%30.15 "HgN/A
6:30 am48 °FPassing clouds.5 mph87%30.15 "HgN/A
6:00 am48 °FPassing clouds.6 mph87%30.12 "Hg6 mi
5:30 am48 °FPassing clouds.6 mph94%30.12 "Hg6 mi
5:00 am48 °FClear.7 mph87%30.12 "Hg10 mi
4:30 am48 °FClear.3 mph87%30.12 "Hg10 mi
4:00 am48 °FClear.3 mph87%30.12 "Hg10 mi
3:00 am48 °FClear.5 mph87%30.12 "Hg10 mi
2:30 am48 °FClear.6 mph87%30.12 "Hg10 mi
2:00 am50 °FClear.5 mph88%30.12 "Hg10 mi
1:30 am50 °FClear.3 mph94%30.12 "Hg10 mi
1:00 am50 °FClear.No wind88%30.15 "Hg10 mi
12:30 am48 °FClear.No wind94%30.12 "Hg10 mi
12:00 am50 °FClear.No wind88%30.15 "Hg10 mi
11:30 pm
Tue, Feb 19
50 °FClear.2 mph94%30.12 "Hg10 mi
11:00 pm52 °FClear.2 mph88%30.12 "Hg10 mi
10:30 pm52 °FClear.2 mph88%30.12 "Hg10 mi
10:00 pm52 °FClear.2 mph88%30.15 "Hg10 mi
9:30 pm54 °FClear.2 mph82%30.15 "Hg10 mi
9:00 pm54 °FClear.2 mph88%30.15 "Hg10 mi
8:30 pm54 °FClear.3 mph88%30.12 "Hg10 mi
8:00 pm55 °FPassing clouds.3 mph88%30.12 "HgN/A
7:30 pm57 °FPassing clouds.3 mph82%30.12 "HgN/A
7:00 pm57 °FPassing clouds.3 mph82%30.12 "HgN/A
6:30 pm59 °FPassing clouds.2 mph77%30.12 "HgN/A
6:00 pm59 °FPassing clouds.3 mph77%30.12 "HgN/A
5:30 pm61 °FScattered clouds.3 mph77%30.12 "HgN/A
5:00 pm63 °FScattered clouds.3 mph73%30.09 "HgN/A
4:30 pm64 °FScattered clouds.8 mph73%30.09 "HgN/A
4:00 pm66 °FScattered clouds.10 mph64%30.09 "HgN/A
3:30 pm68 °FScattered clouds.14 mph60%30.09 "HgN/A
3:00 pm68 °FScattered clouds.13 mph60%30.09 "HgN/A
2:30 pm68 °FPassing clouds.14 mph60%30.09 "HgN/A
2:00 pm68 °FPassing clouds.14 mph56%30.09 "HgN/A
1:30 pm68 °FPassing clouds.10 mph49%30.09 "HgN/A
1:00 pm66 °FPassing clouds.9 mph56%30.12 "HgN/A
12:30 pm66 °FPassing clouds.9 mph52%30.12 "HgN/A
12:00 pm64 °FPassing clouds.9 mph60%30.12 "HgN/A
11:30 am64 °FPassing clouds.9 mph64%30.12 "HgN/A
11:00 am64 °FPassing clouds.8 mph68%30.15 "HgN/A
10:30 am64 °FSunny.8 mph68%30.15 "Hg10 mi
10:00 am64 °FSunny.8 mph64%30.12 "Hg10 mi
9:30 am63 °FSunny.6 mph64%30.12 "Hg10 mi
9:00 am63 °FPassing clouds.6 mph64%30.12 "HgN/A
Weather by CustomWeather, © 2019

See weather overview